QPF
0.00 0.00 0.00 0.00 0.00 0.00 0.00 0.00 0.00 0.00 0.00 0.00 0.00 0.00 0.00 0.00 0.00 0.00 0.00 0.00 0.00 0.00 0.00 0.00 0.00 0.00 0.01 0.01 0.01 0.01 0.01 0.01 0.02 0.02 0.02 0.02 0.02 0.02 0.02 0.02 0.02 0.02 0.02
0.00 0.00 0.00 0.00 0.00 0.00 0.00 0.00 0.00 0.00 0.00 0.00 0.00 0.00 0.00 0.00 0.00 0.00 0.00 0.00 0.00 0.00 0.00 0.00 0.00 0.00 0.00 0.00 0.01 0.01 0.01 0.01 0.02 0.02 0.02 0.03 0.03 0.03 0.03 0.03 0.03 0.03 0.03
0.00 0.00 0.00 0.00 0.00 0.00 0.00 0.00 0.00 0.00 0.00 0.00 0.00 0.00 0.00 0.00 0.00 0.00 0.00 0.00 0.00 0.00 0.00 0.00 0.00 0.00 0.00 0.00 0.01 0.01 0.01 0.01 0.01 0.01 0.01 0.02 0.02 0.03 0.03 0.03 0.04 0.04 0.04
0.00 0.00 0.00 0.00 0.00 0.00 0.00 0.00 0.00 0.00 0.00 0.00 0.00 0.00 0.00 0.00 0.00 0.00 0.00 0.00 0.00 0.00 0.00 0.00 0.00 0.00 0.00 0.00 0.00 0.00 0.00 0.01 0.01 0.01 0.01 0.01 0.01 0.02 0.03 0.03 0.04 0.04 0.05
0.00 0.00 0.00 0.00 0.00 0.00 0.00 0.00 0.00 0.00 0.00 0.00 0.00 0.00 0.00 0.00 0.00 0.00 0.00 0.00 0.00 0.00 0.00 0.00 0.00 0.00 0.00 0.00 0.00 0.00 0.00 0.00 0.00 0.00 0.00 0.01 0.01 0.01 0.02 0.02 0.03 0.04 0.05
0.00 0.00 0.00 0.00 0.00 0.00 0.00 0.00 0.00 0.00 0.00 0.00 0.00 0.00 0.00 0.00 0.00 0.00 0.00 0.00 0.00 0.00 0.00 0.00 0.00 0.00 0.00 0.00 0.00 0.00 0.00 0.00 0.00 0.00 0.00 0.00 0.00 0.01 0.01 0.01 0.02 0.03 0.04
0.00 0.00 0.00 0.00 0.00 0.00 0.00 0.00 0.00 0.00 0.00 0.00 0.00 0.00 0.00 0.00 0.00 0.00 0.00 0.00 0.00 0.00 0.00 0.00 0.00 0.00 0.00 0.00 0.00 0.00 0.00 0.00 0.00 0.00 0.00 0.00 0.00 0.00 0.00 0.01 0.01 0.02 0.03
0.00 0.00 0.00 0.00 0.00 0.00 0.00 0.00 0.00 0.00 0.00 0.00 0.00 0.00 0.00 0.00 0.00 0.00 0.00 0.00 0.00 0.00 0.00 0.00 0.00 0.00 0.00 0.00 0.00 0.00 0.00 0.00 0.00 0.00 0.00 0.00 0.00 0.00 0.00 0.01 0.01 0.01 0.02
0.00 0.00 0.00 0.00 0.00 0.00 0.00 0.00 0.00 0.00 0.00 0.00 0.00 0.00 0.00 0.00 0.00 0.00 0.00 0.00 0.00 0.00 0.00 0.00 0.00 0.00 0.00 0.00 0.00 0.00 0.00 0.00 0.00 0.00 0.00 0.00 0.00 0.01 0.01 0.01 0.01 0.01 0.02
0.00 0.00 0.00 0.00 0.00 0.00 0.00 0.00 0.00 0.00 0.00 0.00 0.00 0.00 0.00 0.00 0.00 0.00 0.00 0.00 0.00 0.00 0.00 0.00 0.00 0.00 0.00 0.00 0.00 0.00 0.00 0.00 0.00 0.00 0.00 0.00 0.01 0.01 0.02 0.02 0.03 0.03 0.03
0.00 0.00 0.00 0.00 0.00 0.00 0.00 0.00 0.00 0.00 0.00 0.00 0.00 0.00 0.00 0.00 0.00 0.00 0.00 0.00 0.00 0.00 0.00 0.00 0.00 0.00 0.00 0.00 0.00 0.00 0.00 0.00 0.00 0.00 0.00 0.00 0.01 0.01 0.02 0.03 0.03 0.04 0.04
0.00 0.00 0.00 0.00 0.00 0.00 0.00 0.00 0.00 0.00 0.00 0.00 0.00 0.00 0.00 0.00 0.00 0.00 0.00 0.00 0.00 0.00 0.00 0.00 0.00 0.00 0.00 0.00 0.00 0.00 0.00 0.00 0.00 0.00 0.00 0.00 0.00 0.01 0.01 0.02 0.02 0.03 0.03
0.00 0.00 0.00 0.00 0.00 0.00 0.00 0.00 0.00 0.00 0.00 0.00 0.00 0.00 0.00 0.00 0.00 0.00 0.00 0.00 0.00 0.00 0.00 0.00 0.00 0.00 0.00 0.00 0.00 0.00 0.00 0.00 0.00 0.00 0.00 0.00 0.00 0.01 0.01 0.01 0.02 0.02 0.02
0.00 0.00 0.00 0.00 0.00 0.00 0.00 0.00 0.00 0.00 0.00 0.00 0.00 0.00 0.00 0.00 0.00 0.00 0.00 0.00 0.00 0.00 0.00 0.00 0.00 0.00 0.00 0.00 0.00 0.00 0.00 0.00 0.00 0.00 0.00 0.01 0.01 0.01 0.01 0.01 0.02 0.02 0.02
0.00 0.00 0.00 0.00 0.00 0.00 0.00 0.00 0.00 0.00 0.00 0.00 0.00 0.00 0.00 0.00 0.00 0.00 0.00 0.00 0.00 0.00 0.00 0.00 0.00 0.00 0.00 0.00 0.00 0.00 0.00 0.00 0.00 0.01 0.01 0.01 0.01 0.02 0.02 0.02 0.02 0.02 0.02
0.00 0.00 0.00 0.00 0.00 0.00 0.00 0.00 0.00 0.00 0.00 0.00 0.00 0.00 0.00 0.00 0.00 0.00 0.00 0.00 0.00 0.00 0.00 0.00 0.00 0.00 0.00 0.00 0.00 0.00 0.00 0.00 0.00 0.00 0.01 0.01 0.01 0.02 0.02 0.02 0.02 0.03 0.03
0.00 0.00 0.00 0.00 0.00 0.00 0.00 0.00 0.00 0.00 0.00 0.00 0.00 0.00 0.00 0.00 0.00 0.00 0.00 0.00 0.00 0.00 0.00 0.00 0.00 0.00 0.00 0.00 0.00 0.00 0.00 0.00 0.00 0.00 0.00 0.01 0.02 0.02 0.03 0.03 0.03 0.04 0.04
0.00 0.00 0.00 0.00 0.00 0.00 0.00 0.00 0.00 0.00 0.00 0.00 0.00 0.00 0.00 0.00 0.00 0.00 0.00 0.00 0.00 0.00 0.00 0.00 0.00 0.00 0.00 0.00 0.00 0.00 0.00 0.00 0.00 0.00 0.00 0.01 0.02 0.03 0.03 0.04 0.04 0.04 0.04
0.00 0.00 0.00 0.00 0.00 0.00 0.00 0.00 0.00 0.00 0.00 0.00 0.00 0.00 0.00 0.00 0.00 0.00 0.00 0.00 0.00 0.00 0.00 0.00 0.00 0.00 0.00 0.00 0.00 0.00 0.00 0.00 0.00 0.00 0.00 0.01 0.01 0.01 0.02 0.03 0.04 0.04 0.04
0.00 0.00 0.00 0.00 0.00 0.00 0.00 0.00 0.00 0.00 0.00 0.00 0.00 0.00 0.00 0.00 0.00 0.00 0.00 0.00 0.00 0.00 0.01 0.01 0.01 0.01 0.01 0.01 0.01 0.01 0.00 0.00 0.00 0.00 0.00 0.00 0.00 0.01 0.01 0.02 0.02 0.02 0.02
0.00 0.00 0.00 0.00 0.00 0.00 0.00 0.00 0.00 0.00 0.00 0.00 0.00 0.00 0.00 0.00 0.00 0.00 0.00 0.01 0.01 0.01 0.02 0.02 0.02 0.02 0.01 0.01 0.01 0.01 0.01 0.01 0.00 0.00 0.00 0.00 0.00 0.00 0.00 0.00 0.00 0.00 0.00
0.00 0.00 0.00 0.00 0.00 0.00 0.00 0.00 0.00 0.00 0.00 0.00 0.00 0.00 0.00 0.00 0.00 0.00 0.01 0.01 0.01 0.02 0.02 0.03 0.04 0.04 0.02 0.01 0.01 0.01 0.02 0.03 0.03 0.00 0.00 0.00 0.00 0.00 0.00 0.00 0.00 0.00 0.01
0.00 0.00 0.00 0.00 0.00 0.00 0.00 0.00 0.00 0.00 0.00 0.00 0.00 0.00 0.00 0.00 0.00 0.00 0.00 0.00 0.01 0.01 0.02 0.03 0.04 0.03 0.02 0.01 0.02 0.03 0.03 0.04 0.04 0.02 0.02 0.02 0.00 0.00 0.00 0.00 0.00 0.00 0.01
0.00 0.00 0.00 0.00 0.00 0.00 0.00 0.00 0.00 0.00 0.00 0.00 0.00 0.00 0.00 0.00 0.00 0.00 0.00 0.00 0.00 0.00 0.01 0.01 0.01 0.01 0.02 0.02 0.04 0.07 0.09 0.10 0.07 0.03 0.02 0.03 0.01 0.00 0.00 0.00 0.00 0.00 0.01
0.00 0.00 0.00 0.00 0.00 0.00 0.00 0.00 0.00 0.00 0.00 0.00 0.00 0.00 0.00 0.00 0.00 0.02 0.02 0.01 0.01 0.00 0.01 0.02 0.04 0.04 0.05 0.05 0.06 0.07 0.09 0.11 0.09 0.02 0.01 0.02 0.01 0.00 0.00 0.00 0.00 0.00 0.00
0.00 0.00 0.00 0.00 0.00 0.00 0.00 0.00 0.00 0.00 0.00 0.00 0.00 0.00 0.00 0.01 0.01 0.03 0.02 0.03 0.04 0.03 0.02 0.02 0.02 0.01 0.01 0.01 0.02 0.02 0.04 0.09 0.08 0.05 0.01 0.01 0.02 0.02 0.03 0.00 0.00 0.00 0.00
MSLP
1022.91 1023.07 1023.14 1023.13 1023.09 1023.03 1022.99 1022.99 1023.03 1023.08 1023.14 1023.18 1023.17 1023.12 1023.03 1022.92 1022.79 1022.67 1022.55 1022.42 1022.28 1022.11 1021.89 1021.62 1021.30 1020.96 1020.61 1020.29 1020.02 1019.81 1019.67 1019.57 1019.52 1019.47 1019.42 1019.35 1019.26 1019.15 1019.03 1018.92 1018.83 1018.77 1018.73
1022.53 1022.69 1022.78 1022.82 1022.83 1022.84 1022.86 1022.89 1022.95 1023.01 1023.05 1023.06 1023.02 1022.94 1022.82 1022.68 1022.54 1022.42 1022.31 1022.22 1022.12 1022.00 1021.83 1021.59 1021.30 1020.97 1020.61 1020.26 1019.94 1019.67 1019.46 1019.31 1019.20 1019.12 1019.04 1018.94 1018.83 1018.69 1018.54 1018.39 1018.26 1018.14 1018.06
1022.18 1022.34 1022.47 1022.57 1022.66 1022.74 1022.82 1022.91 1022.99 1023.05 1023.08 1023.06 1022.99 1022.87 1022.71 1022.54 1022.38 1022.25 1022.15 1022.07 1021.99 1021.91 1021.77 1021.59 1021.33 1021.02 1020.67 1020.30 1019.95 1019.64 1019.37 1019.15 1018.98 1018.84 1018.71 1018.58 1018.43 1018.26 1018.08 1017.89 1017.71 1017.55 1017.43
1021.94 1022.11 1022.28 1022.44 1022.61 1022.76 1022.91 1023.05 1023.16 1023.22 1023.23 1023.19 1023.07 1022.91 1022.72 1022.51 1022.32 1022.17 1022.05 1021.97 1021.90 1021.83 1021.73 1021.58 1021.36 1021.08 1020.75 1020.40 1020.03 1019.68 1019.36 1019.08 1018.84 1018.63 1018.44 1018.25 1018.05 1017.85 1017.63 1017.41 1017.20 1017.00 1016.83
1021.87 1022.04 1022.25 1022.47 1022.70 1022.93 1023.14 1023.31 1023.44 1023.50 1023.49 1023.42 1023.27 1023.07 1022.84 1022.60 1022.38 1022.19 1022.04 1021.93 1021.85 1021.77 1021.68 1021.55 1021.37 1021.13 1020.84 1020.50 1020.14 1019.77 1019.41 1019.07 1018.76 1018.47 1018.20 1017.95 1017.69 1017.45 1017.20 1016.95 1016.71 1016.49 1016.29
1021.96 1022.14 1022.38 1022.64 1022.93 1023.20 1023.45 1023.65 1023.78 1023.84 1023.81 1023.71 1023.54 1023.32 1023.07 1022.80 1022.54 1022.31 1022.12 1021.96 1021.84 1021.73 1021.63 1021.50 1021.34 1021.14 1020.88 1020.57 1020.23 1019.85 1019.46 1019.07 1018.68 1018.31 1017.97 1017.64 1017.33 1017.04 1016.76 1016.49 1016.23 1015.99 1015.77
1022.19 1022.38 1022.62 1022.91 1023.22 1023.52 1023.79 1023.99 1024.12 1024.16 1024.12 1024.01 1023.84 1023.61 1023.35 1023.07 1022.79 1022.53 1022.28 1022.07 1021.88 1021.72 1021.57 1021.43 1021.27 1021.09 1020.86 1020.58 1020.26 1019.88 1019.47 1019.03 1018.58 1018.14 1017.71 1017.31 1016.95 1016.61 1016.30 1016.01 1015.75 1015.49 1015.25
1022.50 1022.67 1022.92 1023.21 1023.53 1023.83 1024.09 1024.28 1024.39 1024.43 1024.38 1024.27 1024.11 1023.90 1023.66 1023.39 1023.11 1022.81 1022.52 1022.23 1021.97 1021.74 1021.53 1021.34 1021.16 1020.98 1020.76 1020.51 1020.20 1019.83 1019.40 1018.93 1018.43 1017.92 1017.42 1016.95 1016.53 1016.14 1015.81 1015.51 1015.23 1014.97 1014.73
1022.79 1022.96 1023.20 1023.49 1023.79 1024.07 1024.31 1024.47 1024.56 1024.59 1024.54 1024.45 1024.32 1024.16 1023.96 1023.72 1023.45 1023.14 1022.80 1022.45 1022.11 1021.78 1021.49 1021.24 1021.01 1020.80 1020.59 1020.34 1020.05 1019.68 1019.25 1018.75 1018.20 1017.64 1017.08 1016.55 1016.07 1015.65 1015.29 1014.97 1014.69 1014.43 1014.17
1023.03 1023.20 1023.43 1023.69 1023.97 1024.22 1024.42 1024.55 1024.62 1024.63 1024.60 1024.54 1024.46 1024.35 1024.21 1024.03 1023.78 1023.47 1023.10 1022.69 1022.27 1021.85 1021.46 1021.12 1020.83 1020.58 1020.34 1020.09 1019.79 1019.43 1018.99 1018.47 1017.90 1017.29 1016.69 1016.12 1015.59 1015.14 1014.74 1014.40 1014.11 1013.84 1013.58
1023.18 1023.35 1023.57 1023.82 1024.07 1024.28 1024.44 1024.54 1024.58 1024.58 1024.56 1024.53 1024.50 1024.46 1024.39 1024.26 1024.05 1023.76 1023.37 1022.92 1022.42 1021.91 1021.43 1021.00 1020.63 1020.32 1020.04 1019.77 1019.46 1019.09 1018.64 1018.11 1017.52 1016.89 1016.26 1015.65 1015.09 1014.60 1014.18 1013.83 1013.51 1013.23 1012.96
1023.25 1023.43 1023.65 1023.88 1024.10 1024.27 1024.39 1024.45 1024.47 1024.46 1024.44 1024.44 1024.46 1024.47 1024.46 1024.39 1024.23 1023.95 1023.56 1023.07 1022.51 1021.93 1021.37 1020.85 1020.41 1020.03 1019.70 1019.39 1019.06 1018.68 1018.22 1017.69 1017.09 1016.44 1015.79 1015.16 1014.59 1014.07 1013.63 1013.24 1012.91 1012.60 1012.32
1023.25 1023.45 1023.67 1023.89 1024.08 1024.23 1024.31 1024.33 1024.31 1024.28 1024.27 1024.28 1024.33 1024.38 1024.42 1024.39 1024.27 1024.01 1023.62 1023.11 1022.52 1021.88 1021.25 1020.66 1020.15 1019.71 1019.32 1018.97 1018.61 1018.21 1017.75 1017.21 1016.61 1015.96 1015.30 1014.66 1014.07 1013.54 1013.07 1012.66 1012.30 1011.98 1011.68
1023.21 1023.43 1023.65 1023.86 1024.03 1024.15 1024.19 1024.18 1024.13 1024.08 1024.05 1024.06 1024.11 1024.18 1024.23 1024.23 1024.13 1023.90 1023.52 1023.01 1022.39 1021.73 1021.05 1020.42 1019.84 1019.35 1018.92 1018.52 1018.13 1017.71 1017.24 1016.69 1016.09 1015.45 1014.79 1014.15 1013.54 1013.00 1012.51 1012.09 1011.71 1011.36 1011.04
1023.14 1023.37 1023.59 1023.79 1023.94 1024.03 1024.04 1023.99 1023.91 1023.83 1023.77 1023.76 1023.79 1023.86 1023.91 1023.91 1023.82 1023.59 1023.23 1022.72 1022.11 1021.44 1020.75 1020.08 1019.48 1018.95 1018.47 1018.04 1017.62 1017.17 1016.68 1016.13 1015.53 1014.89 1014.24 1013.60 1013.00 1012.45 1011.96 1011.52 1011.12 1010.76 1010.43
1023.03 1023.26 1023.47 1023.65 1023.78 1023.84 1023.82 1023.75 1023.64 1023.52 1023.43 1023.39 1023.39 1023.42 1023.45 1023.43 1023.33 1023.11 1022.75 1022.26 1021.67 1021.00 1020.32 1019.65 1019.03 1018.48 1017.98 1017.51 1017.06 1016.59 1016.08 1015.53 1014.92 1014.29 1013.65 1013.02 1012.43 1011.88 1011.39 1010.94 1010.54 1010.17 1009.83
1022.86 1023.06 1023.25 1023.41 1023.51 1023.55 1023.51 1023.42 1023.29 1023.15 1023.03 1022.94 1022.90 1022.88 1022.87 1022.81 1022.69 1022.46 1022.10 1021.63 1021.06 1020.42 1019.76 1019.11 1018.49 1017.92 1017.40 1016.91 1016.43 1015.94 1015.42 1014.85 1014.25 1013.63 1013.00 1012.38 1011.81 1011.27 1010.79 1010.35 1009.95 1009.58 1009.24
1022.60 1022.77 1022.93 1023.06 1023.13 1023.15 1023.10 1023.00 1022.85 1022.69 1022.54 1022.42 1022.33 1022.26 1022.19 1022.09 1021.93 1021.68 1021.32 1020.86 1020.32 1019.71 1019.08 1018.44 1017.84 1017.27 1016.74 1016.23 1015.73 1015.22 1014.68 1014.11 1013.51 1012.89 1012.28 1011.69 1011.13 1010.62 1010.15 1009.73 1009.35 1008.99 1008.66
1022.26 1022.39 1022.50 1022.59 1022.65 1022.65 1022.59 1022.48 1022.33 1022.16 1021.99 1021.83 1021.70 1021.58 1021.46 1021.31 1021.10 1020.82 1020.46 1020.00 1019.48 1018.90 1018.29 1017.68 1017.09 1016.53 1015.99 1015.46 1014.95 1014.41 1013.86 1013.28 1012.69 1012.09 1011.50 1010.93 1010.40 1009.92 1009.48 1009.09 1008.72 1008.39 1008.07
1021.84 1021.93 1022.00 1022.06 1022.09 1022.07 1022.01 1021.90 1021.75 1021.57 1021.39 1021.20 1021.03 1020.86 1020.69 1020.49 1020.24 1019.93 1019.54 1019.09 1018.57 1018.01 1017.43 1016.84 1016.26 1015.69 1015.15 1014.61 1014.08 1013.53 1012.97 1012.39 1011.81 1011.23 1010.66 1010.12 1009.63 1009.18 1008.78 1008.42 1008.09 1007.78 1007.48
1021.39 1021.44 1021.48 1021.51 1021.51 1021.48 1021.40 1021.28 1021.13 1020.95 1020.75 1020.55 1020.34 1020.13 1019.91 1019.66 1019.36 1019.02 1018.61 1018.15 1017.63 1017.08 1016.51 1015.93 1015.36 1014.80 1014.25 1013.70 1013.15 1012.59 1012.03 1011.45 1010.88 1010.32 1009.79 1009.29 1008.83 1008.43 1008.06 1007.74 1007.44 1007.16 1006.89
1020.96 1020.99 1021.00 1021.00 1020.97 1020.91 1020.81 1020.67 1020.51 1020.31 1020.09 1019.86 1019.63 1019.38 1019.11 1018.82 1018.49 1018.11 1017.69 1017.21 1016.70 1016.15 1015.58 1015.01 1014.44 1013.87 1013.31 1012.75 1012.19 1011.63 1011.06 1010.50 1009.94 1009.40 1008.90 1008.44 1008.03 1007.67 1007.35 1007.07 1006.80 1006.56 1006.31
1020.60 1020.62 1020.61 1020.57 1020.50 1020.40 1020.26 1020.09 1019.88 1019.66 1019.41 1019.15 1018.88 1018.60 1018.30 1017.98 1017.62 1017.22 1016.78 1016.29 1015.77 1015.23 1014.67 1014.10 1013.53 1012.96 1012.39 1011.82 1011.25 1010.69 1010.12 1009.56 1009.02 1008.51 1008.04 1007.62 1007.25 1006.93 1006.66 1006.42 1006.20 1005.98 1005.76
1020.33 1020.34 1020.31 1020.23 1020.12 1019.95 1019.75 1019.52 1019.26 1018.98 1018.69 1018.40 1018.10 1017.79 1017.47 1017.12 1016.75 1016.34 1015.89 1015.40 1014.89 1014.35 1013.79 1013.23 1012.66 1012.09 1011.52 1010.95 1010.38 1009.81 1009.24 1008.69 1008.17 1007.68 1007.24 1006.86 1006.53 1006.25 1006.02 1005.82 1005.64 1005.46 1005.27
1020.14 1020.15 1020.09 1019.97 1019.78 1019.54 1019.26 1018.95 1018.62 1018.28 1017.94 1017.60 1017.27 1016.94 1016.61 1016.26 1015.88 1015.47 1015.03 1014.56 1014.06 1013.53 1012.99 1012.44 1011.88 1011.32 1010.75 1010.18 1009.61 1009.04 1008.48 1007.94 1007.43 1006.96 1006.55 1006.19 1005.89 1005.65 1005.46 1005.30 1005.16 1005.01 1004.86
1019.99 1019.99 1019.89 1019.70 1019.44 1019.11 1018.74 1018.34 1017.92 1017.52 1017.13 1016.75 1016.41 1016.07 1015.73 1015.39 1015.03 1014.64 1014.22 1013.77 1013.30 1012.80 1012.28 1011.75 1011.21 1010.66 1010.11 1009.55 1008.99 1008.43 1007.87 1007.34 1006.83 1006.38 1005.98 1005.64 1005.37 1005.16 1005.00 1004.87 1004.76 1004.66 1004.53
Thickness
5634 5632 5629 5627 5624 5622 5620 5618 5616 5615 5613 5612 5611 5610 5609 5608 5607 5607 5607 5607 5607 5608 5609 5611 5613 5614 5616 5617 5618 5619 5619 5620 5621 5621 5622 5623 5624 5625 5625 5626 5627 5627 5627
5632 5628 5625 5622 5620 5618 5615 5613 5611 5609 5607 5606 5604 5604 5602 5601 5601 5600 5600 5600 5600 5600 5601 5603 5604 5606 5607 5609 5610 5611 5611 5612 5613 5613 5614 5615 5615 5616 5617 5619 5619 5620 5621
5628 5625 5621 5618 5616 5613 5610 5607 5605 5602 5600 5599 5597 5596 5596 5595 5594 5593 5593 5592 5592 5592 5592 5593 5594 5595 5597 5598 5600 5601 5602 5603 5603 5604 5605 5606 5606 5607 5609 5610 5611 5612 5613
5624 5621 5617 5614 5611 5607 5604 5601 5598 5596 5593 5591 5590 5589 5589 5588 5588 5587 5585 5584 5583 5583 5582 5582 5583 5584 5585 5586 5588 5590 5591 5592 5593 5594 5596 5597 5598 5599 5600 5601 5602 5603 5605
5620 5616 5612 5608 5605 5601 5597 5594 5591 5588 5586 5584 5583 5582 5582 5581 5580 5579 5578 5577 5576 5575 5573 5573 5572 5572 5573 5574 5576 5577 5579 5580 5582 5584 5585 5587 5588 5589 5591 5592 5593 5594 5596
5613 5610 5606 5602 5598 5594 5590 5586 5583 5580 5577 5575 5575 5574 5574 5574 5573 5571 5570 5569 5567 5566 5565 5563 5563 5562 5562 5562 5563 5565 5567 5569 5570 5572 5574 5575 5577 5579 5580 5582 5583 5585 5586
5606 5602 5598 5594 5590 5586 5581 5578 5574 5570 5567 5565 5564 5563 5565 5566 5565 5564 5561 5560 5558 5556 5555 5553 5552 5551 5551 5550 5551 5552 5554 5556 5558 5560 5561 5563 5565 5567 5569 5571 5573 5574 5576
5598 5594 5590 5585 5581 5577 5572 5568 5564 5560 5556 5554 5551 5549 5547 5550 5553 5556 5552 5550 5548 5545 5543 5542 5540 5540 5539 5539 5539 5539 5541 5543 5545 5547 5549 5550 5552 5554 5556 5558 5560 5562 5564
5590 5586 5581 5577 5572 5568 5562 5558 5554 5550 5545 5542 5539 5536 5533 5532 5534 5541 5541 5539 5536 5533 5531 5529 5529 5527 5527 5526 5527 5527 5527 5529 5531 5533 5535 5537 5539 5540 5542 5544 5546 5548 5551
5581 5577 5572 5568 5563 5558 5553 5549 5545 5540 5535 5531 5527 5524 5521 5519 5516 5523 5529 5528 5526 5523 5521 5519 5518 5516 5515 5514 5513 5513 5514 5515 5517 5519 5520 5522 5524 5525 5527 5529 5531 5533 5535
5572 5568 5563 5558 5553 5548 5543 5539 5535 5530 5525 5521 5516 5512 5508 5504 5500 5500 5509 5513 5513 5512 5510 5508 5506 5505 5503 5502 5500 5500 5500 5501 5502 5503 5504 5506 5507 5509 5510 5512 5514 5515 5517
5562 5558 5553 5548 5543 5538 5534 5529 5524 5520 5515 5510 5506 5501 5497 5492 5489 5485 5487 5493 5499 5501 5499 5497 5494 5492 5490 5488 5486 5486 5485 5485 5486 5486 5487 5488 5489 5490 5492 5493 5495 5496 5498
5552 5548 5543 5538 5533 5528 5524 5519 5514 5509 5505 5500 5495 5491 5487 5483 5479 5475 5472 5475 5478 5484 5485 5485 5481 5478 5475 5473 5471 5470 5470 5469 5469 5470 5470 5470 5470 5471 5472 5473 5475 5476 5478
5543 5538 5533 5528 5523 5518 5514 5509 5504 5499 5494 5489 5485 5480 5476 5472 5468 5463 5459 5457 5460 5465 5465 5466 5466 5462 5458 5456 5454 5453 5453 5451 5452 5452 5452 5452 5452 5452 5452 5453 5453 5454 5455
5534 5529 5523 5518 5513 5508 5503 5498 5493 5488 5484 5479 5474 5470 5465 5462 5457 5453 5447 5442 5437 5444 5454 5452 5447 5445 5441 5438 5436 5435 5434 5433 5433 5433 5432 5432 5431 5431 5431 5431 5431 5432 5432
5525 5519 5514 5508 5503 5498 5493 5488 5483 5478 5473 5468 5464 5459 5455 5451 5447 5442 5436 5431 5425 5423 5432 5434 5429 5425 5421 5419 5416 5415 5414 5413 5412 5411 5411 5410 5410 5410 5409 5409 5409 5409 5410
5515 5509 5504 5498 5493 5488 5483 5478 5473 5468 5463 5458 5454 5449 5445 5441 5436 5431 5426 5420 5414 5408 5414 5425 5416 5411 5404 5399 5397 5394 5391 5390 5389 5388 5388 5389 5389 5388 5388 5388 5387 5388 5389
5505 5499 5494 5488 5483 5478 5473 5468 5463 5458 5453 5448 5444 5439 5435 5430 5425 5420 5414 5408 5403 5397 5395 5403 5404 5396 5390 5383 5380 5376 5372 5370 5368 5367 5367 5367 5368 5368 5368 5368 5369 5369 5370
5495 5490 5484 5478 5473 5468 5463 5458 5453 5448 5444 5439 5434 5429 5424 5418 5413 5408 5402 5396 5391 5386 5381 5381 5386 5381 5374 5367 5362 5359 5355 5352 5349 5348 5348 5348 5349 5350 5351 5352 5353 5354 5356
5485 5480 5474 5469 5463 5458 5453 5448 5444 5439 5434 5430 5424 5419 5413 5406 5401 5395 5390 5383 5377 5372 5366 5363 5365 5364 5357 5350 5342 5339 5339 5336 5334 5332 5331 5332 5333 5335 5336 5337 5339 5341 5343
5476 5470 5464 5458 5453 5448 5443 5438 5434 5430 5425 5421 5415 5408 5402 5395 5390 5383 5378 5372 5364 5357 5351 5347 5346 5345 5341 5332 5325 5321 5321 5322 5322 5319 5319 5320 5319 5321 5322 5323 5326 5329 5332
5466 5460 5453 5448 5443 5438 5434 5431 5427 5422 5416 5409 5403 5397 5390 5383 5376 5371 5364 5357 5349 5340 5333 5328 5327 5324 5322 5314 5309 5306 5305 5307 5312 5310 5307 5311 5309 5311 5313 5314 5317 5321 5324
5456 5449 5443 5438 5433 5428 5424 5421 5416 5411 5405 5397 5389 5382 5376 5369 5361 5352 5346 5341 5333 5323 5316 5310 5308 5307 5303 5300 5295 5295 5294 5296 5300 5301 5298 5305 5304 5306 5308 5310 5312 5316 5319
5445 5439 5434 5428 5422 5417 5413 5409 5404 5399 5391 5384 5375 5366 5359 5352 5343 5334 5329 5324 5318 5311 5302 5296 5292 5292 5290 5289 5285 5286 5287 5290 5293 5294 5292 5297 5300 5302 5304 5305 5307 5310 5314
5435 5429 5423 5417 5411 5406 5401 5395 5389 5383 5377 5370 5362 5352 5342 5335 5330 5322 5315 5309 5306 5301 5294 5289 5287 5285 5284 5283 5281 5280 5280 5281 5288 5290 5289 5290 5295 5296 5299 5301 5303 5305 5307
5425 5419 5413 5406 5399 5393 5387 5381 5373 5366 5361 5356 5349 5340 5330 5321 5315 5308 5299 5293 5290 5289 5285 5282 5279 5277 5275 5273 5273 5272 5272 5274 5279 5283 5285 5284 5287 5287 5292 5295 5296 5297 5298